Location: Wald
(31.7579°N, 86.6655°W)
Time: 11:51:42
(UTC+00:00)

Cosmos 1782 Rocket - Pass Details

Date: 14 July 2020
Orbit: 606 x 633 km, 82.5° (Epoch: 08 August)

Event Time Altitude Azimuth Distance (km) Brightness Sun altitude
Exits shadow 09:21:45 30° 212° (SSW) 1,120 4.3 -16.9°
Maximum altitude 09:23:44 57° 277° (W) 739 3.7 -16.5°
Drops below altitude 10° 09:28:06 10° 357° (N) 2,001 6.7 -15.8°
Sets 09:30:22 0° 1° (N) 2,906 7.6 -15.4°
